Terug naar catalogus

STARLINK-30340

ActiefCommunicatieVLEO
NORAD 57884·PAYLOAD·🇺🇸 United States

Gelanceerd Sep 16, 2023 vanaf Cape Canaveral Space Force Station

Loading…

Volgende Passages (komende 24 uur)

TLE

VersSource: CelesTrak SupGP

Epoch: Sep 15, 2026, 02:31 UTC

1 57884C 23144W   26258.10534722  .00019132  00000+0  69245-3 0  2585
2 57884  43.0002 295.1911 0001490 270.8659 296.3024 15.27593085    14

Volg STARLINK-30340 in realtime met AllMySat

Download on the App Store